STARLINK-3882, 52475

Orbit data source: Space-Track

STARLINK-3882, 52475 is a payload satellite owned by SpaceX/Seattle (US) in LEO that was launched on Fri, 06 May 2022 UTC via an FALCON 9 launch vehicle from the Air Force Eastern Test Range (AFETR). Payload-class satellites include a variety of spacecraft equipped with specific instruments for various scientific and technological missions. These include communications satellites like Starlink; space stations such as the ISS; scientific satellites like the Hubble; Earth observation satellites from companies like Planet Labs, Umbra, and HawkEye 360; GPS; miniature CubeSats for education and research; and military/defense satellites.

Loading next visibility...
Identifier
52475, 2022-049AA
Orbit
LEO
Country
Flag of USUS
Related business
Manufacturer
SpaceX/Seattle
Mission
Operational Commercial Communications
Bus & Motor
STARLINK, Unknown motor
Mass
297 kg wet, ~220 kg dry
Launch date (UTC)
2022-05-06 (4 years ago)
Launch vehicle
FALCON 9
Launch site
Air Force Eastern Test Range (AFETR)
Object type
Payload
Rocket body
Debris
Shape & HBR
Box + 1 Pan, 10.1 m
Radar Cross Section
13.562 m², Large (>1 m²)

Expand to show TLE details & history
Last TLE update: 23 hours ago

TLE from 23 hours ago
0 STARLINK-3882
1 52475U 22049AA  26193.45765358  .00000354  00000-0  40346-4 0  9997
2 52475  53.1577 218.9867 0000890  60.1518 299.9562 15.08827999231086
Epoch: 2026-07-12T10:59Z
TLE epoch observation values (Epoch: 2026-07-12T10:59:01.269Z)
Latitude
0.00001°
Longitude
123.87518°
Altitude
540.364 km
Speed
7.594 km/s
True Right ascension
14h 35m 56s
True Declination
0° 00' 00"
Sunlit
Object was in daylight at epoch
Visualization orbit readout
Latitude
Unknown
Longitude
Unknown
Altitude
Unknown
Speed
Unknown
Apparent Right ascension
Unknown
Apparent Declination
Unknown
Sunlit
N/A
Visualization observer readout
Local Sidereal Time
22:08:46
Azimuth
Unknown
Elevation
Unknown
Doppler factor
Unknown
Orbital elements
Apogee altitude
540.65 km
Perigee altitude
539.419 km
Semi-major axis
6,918.172 km
Eccentricity
0.00009
Inclination
53.1577°
RAAN
218.9867°
Arg. of periapsis
60.1518°
True anomaly
299.94736°
Mean anomaly
299.9562°
Eccentric anomaly
299.95178°
Mean motion
3.77187 °/min
Orbital period
95.44 mins
BSTAR
0.000040346
Loading maneuver chart data...
Computing Atmospheric mass density...
Loading historical data...
Loading historical data...
Loading historical data...
Loading historical data...
Loading historical data...
Loading historical data...
Loading historical data...

Documentation

Showing up to 5 results
|